Regional Weather Roundup
Issued by NWS

Home | Current Version | Previous Version | Text Only | Print | Product List | Glossary On
Versions: 1 2 3 4 5 6 7 8 9 10 11 12 13 14 15 16 17 18 19 20 21 22 23 24 25 26 27 28 29 30 31 32 33 34 35 36 37 38 39 40 41 42 43 44 45 46 47 48 49 50
000
ASUS43 KLMK 240710
RWRKY
KENTUCKY REGIONAL WEATHER ROUNDUP
NATIONAL WEATHER SERVICE LOUISVILLE KY
300 AM EDT TUE OCT 24 2017

NOTE "FAIR" INDICATES FEW OR NO CLOUDS BELOW 12,000 FEET
WITH NO SIGNIFICANT WEATHER AND/OR OBSTRUCTIONS TO VISIBILITY.

KYZ001>023-026-027-061>063-070>075-240800-
WESTERN AND SOUTH CENTRAL KENTUCKY

CITY           SKY/WX    TMP DP  RH WIND       PRES   REMARKS
PADUCAH        CLEAR     52  42  69 W7        29.85F
HENDERSON      MOCLDY    52  49  89 W8        29.80S
OWENSBORO      MOCLDY    53  49  86 W9        29.79S
HOPKINSVILLE   PTCLDY    54  46  76 SW7       29.84S
BOWLING GREEN  CLOUDY    56  48  74 SW8       29.82S
GLASGOW        CLOUDY    53  47  78 SW9       29.81S
$$

KYZ024-025-028>034-038-045-046-053-240800-
NORTH CENTRAL KENTUCKY

CITY           SKY/WX    TMP DP  RH WIND       PRES   REMARKS
LOUISVILLE/SDF LGT RAIN  52  48  86 S8        29.73F
LOUISVILLE/LOU RAIN      50  50 100 S6        29.74F
FORT KNOX      CLOUDY    49  48  94 SW7       29.74S
$$

KYZ035>037-039>044-047>052-055>060-089>105-240800-
NORTHEAST KENTUCKY

CITY           SKY/WX    TMP DP  RH WIND       PRES   REMARKS
LEXINGTON      CLOUDY    50  45  83 S8        29.76F
COVINGTON      LGT RAIN  47  47 100 S9        29.73F
FRANKFORT      CLOUDY    50  44  80 S7        29.74F
$$

KYZ054-064>069-076>088-106>120-240800-
SOUTHEAST KENTUCKY

CITY           SKY/WX    TMP DP  RH WIND       PRES   REMARKS
JACKSON        PTCLDY    48  46  93 CALM      29.82F
LONDON         CLEAR     47  44  90 S6        29.83F
SOMERSET       CLOUDY    45  45 100 S3        29.83F
MIDDLESBORO    CLEAR     45  45 100 CALM      29.88S
MONTICELLO     MOSUNNY   48  45  89 E6        29.83F
$$




USA.gov is the U.S. government's official web portal to all federal, state and local government web resources and services.